When you browse on this site, cookies collect data to enhance your experience and personalize the content and advertising you see.
Visit our Privacy Policy to learn more. By continuing to use the site, you agree to this use of cookies and data.
  • In Hungary
  • List of Countries
  • For 7 days
  • Water Temperature
  • Weather Map
  • News
  • Weather Widgets
  • user-avatar
    Login

    Hourly Weather Krnov

    Today, 29 February, Saturday

    Time Temperature Precipitation Wind Pressure Humidity
    00:00 -2°C° 0 mm 3 mps 732 mmHg 84%
    01:00 -2°C° 0 mm 3 mps 732 mmHg 85%
    02:00 -1°C° 0 mm 3 mps 731 mmHg 82%
    03:00 -2°C° 0 mm 4 mps 730 mmHg 80%
    04:00 -2°C° 0 mm 4 mps 730 mmHg 77%
    05:00 -2°C° 0 mm 5 mps 729 mmHg 76%
    06:00 -3°C° 0 mm 6 mps 729 mmHg 75%
    07:00 -2°C° 0 mm 7 mps 728 mmHg 74%
    08:00 -2°C° 0.1 mm 8 mps 728 mmHg 75%
    09:00 -2°C° 0.1 mm 8 mps 727 mmHg 76%
    10:00 -1°C° 0.1 mm 9 mps 726 mmHg 78%
    11:00 -1°C° 0.1 mm 9 mps 726 mmHg 76%
    12:00 0°C° 0.1 mm 9 mps 726 mmHg 75%
    13:00 0°C° 0.1 mm 9 mps 725 mmHg 74%
    14:00 +1°C° 0 mm 9 mps 725 mmHg 72%
    15:00 +1°C° 0 mm 8 mps 724 mmHg 69%
    16:00 +1°C° 0 mm 8 mps 723 mmHg 66%
    17:00 +1°C° 0 mm 8 mps 723 mmHg 68%
    18:00 +1°C° 0 mm 8 mps 723 mmHg 70%
    19:00 0°C° 0 mm 7 mps 723 mmHg 73%
    20:00 +2°C° 0 mm 7 mps 723 mmHg 72%
    21:00 +2°C° 0 mm 7 mps 723 mmHg 72%
    22:00 +2°C° 0 mm 7 mps 723 mmHg 72%
    23:00 +2°C° 0 mm 7 mps 723 mmHg 73%

    Tomorrow, 1 March, Sunday

    Time Temperature Precipitation Wind Pressure Humidity
    00:00 +2°C° 0 mm 7 mps 723 mmHg 74%
    01:00 +2°C° 0 mm 7 mps 723 mmHg 75%
    02:00 +2°C° 0 mm 6 mps 723 mmHg 77%
    03:00 +1°C° 0 mm 6 mps 723 mmHg 79%
    04:00 +1°C° 0 mm 5 mps 723 mmHg 81%
    05:00 +1°C° 0.1 mm 5 mps 723 mmHg 81%
    06:00 +1°C° 0.1 mm 4 mps 723 mmHg 82%
    07:00 +1°C° 0.1 mm 4 mps 723 mmHg 82%
    08:00 +3°C° 0.1 mm 4 mps 723 mmHg 82%
    09:00 +3°C° 0.1 mm 4 mps 723 mmHg 81%
    10:00 +4°C° 0.1 mm 4 mps 723 mmHg 81%
    11:00 +4°C° 0.1 mm 4 mps 723 mmHg 82%
    12:00 +3°C° 0.1 mm 5 mps 723 mmHg 84%
    13:00 +3°C° 0.1 mm 5 mps 723 mmHg 85%
    14:00 +3°C° 0.1 mm 5 mps 723 mmHg 85%
    15:00 +4°C° 0.1 mm 4 mps 723 mmHg 86%
    16:00 +4°C° 0.1 mm 4 mps 723 mmHg 86%
    17:00 +4°C° 0 mm 4 mps 723 mmHg 88%
    18:00 +3°C° 0 mm 4 mps 723 mmHg 89%
    19:00 +3°C° 0 mm 4 mps 723 mmHg 90%
    20:00 +3°C° 0 mm 3 mps 723 mmHg 90%
    21:00 +3°C° 0 mm 3 mps 722 mmHg 91%
    22:00 +3°C° 0 mm 2 mps 722 mmHg 91%
    23:00 +3°C° 0 mm 2 mps 721 mmHg 92%

    Day after tomorrow, 2 March, Monday

    Time Temperature Precipitation Wind Pressure Humidity
    00:00 +3°C° 0 mm 2 mps 721 mmHg 92%
    01:00 +4°C° 0 mm 1 mps 720 mmHg 92%
    02:00 +4°C° 0 mm 1 mps 719 mmHg 93%
    03:00 +4°C° 0 mm 1 mps 719 mmHg 93%
    04:00 +4°C° 0 mm 1 mps 718 mmHg 94%
    05:00 +4°C° 2 mm 1 mps 718 mmHg 95%
    06:00 +4°C° 2 mm 1 mps 718 mmHg 96%
    07:00 +4°C° 2 mm 1 mps 717 mmHg 97%
    08:00 +4°C° 0.3 mm 2 mps 717 mmHg 92%
    09:00 +5°C° 0.3 mm 2 mps 717 mmHg 88%
    10:00 +5°C° 0.3 mm 3 mps 718 mmHg 83%
    11:00 +5°C° 0 mm 4 mps 718 mmHg 77%
    12:00 +6°C° 0 mm 4 mps 718 mmHg 72%
    13:00 +7°C° 0 mm 5 mps 718 mmHg 66%
    14:00 +7°C° 0 mm 5 mps 718 mmHg 66%
    15:00 +7°C° 0 mm 5 mps 718 mmHg 66%
    16:00 +7°C° 0 mm 4 mps 717 mmHg 65%
    17:00 +6°C° 0 mm 4 mps 717 mmHg 70%
    18:00 +5°C° 0 mm 4 mps 717 mmHg 74%
    19:00 +4°C° 0 mm 3 mps 717 mmHg 79%
    20:00 +4°C° 0 mm 3 mps 717 mmHg 79%
    21:00 +4°C° 0 mm 4 mps 717 mmHg 80%
    22:00 +4°C° 0 mm 4 mps 717 mmHg 80%
    23:00 +5°C° 0 mm 4 mps 716 mmHg 81%

    3 March, Tuesday

    Time Temperature Precipitation Wind Pressure Humidity
    00:00 +5°C° 0 mm 4 mps 716 mmHg 82%
    01:00 +5°C° 0 mm 4 mps 716 mmHg 83%
    02:00 +5°C° 0.4 mm 4 mps 715 mmHg 85%
    03:00 +5°C° 0.4 mm 5 mps 715 mmHg 87%
    04:00 +5°C° 0.4 mm 5 mps 715 mmHg 89%
    05:00 +5°C° 0.8 mm 4 mps 715 mmHg 90%
    06:00 +5°C° 0.8 mm 4 mps 715 mmHg 91%
    07:00 +5°C° 0.8 mm 4 mps 715 mmHg 92%
    08:00 +7°C° 0.2 mm 3 mps 716 mmHg 90%
    09:00 +7°C° 0.2 mm 3 mps 716 mmHg 89%
    10:00 +8°C° 0.2 mm 2 mps 717 mmHg 88%
    11:00 +7°C° 0.1 mm 3 mps 717 mmHg 88%
    12:00 +7°C° 0.1 mm 3 mps 717 mmHg 88%
    13:00 +7°C° 0.1 mm 3 mps 718 mmHg 89%
    14:00 +5°C° 0.5 mm 4 mps 718 mmHg 90%
    15:00 +3°C° 0.5 mm 5 mps 718 mmHg 91%
    16:00 +2°C° 0.5 mm 5 mps 719 mmHg 92%
    17:00 +2°C° 0.8 mm 6 mps 719 mmHg 92%
    18:00 +2°C° 0.8 mm 6 mps 719 mmHg 93%
    19:00 +1°C° 0.8 mm 6 mps 720 mmHg 93%
    20:00 +1°C° 0.4 mm 6 mps 720 mmHg 94%
    21:00 +1°C° 0.4 mm 6 mps 720 mmHg 94%
    22:00 +1°C° 0.4 mm 6 mps 720 mmHg 95%
    23:00 -1°C° 1.1 mm 6 mps 720 mmHg 95%

    4 March, Wednesday

    Time Temperature Precipitation Wind Pressure Humidity
    00:00 -1°C° 1.1 mm 6 mps 720 mmHg 95%
    01:00 0°C° 1.1 mm 5 mps 721 mmHg 95%
    02:00 -1°C° 1.1 mm 6 mps 721 mmHg 95%
    03:00 -1°C° 1.1 mm 6 mps 721 mmHg 94%
    04:00 -1°C° 1.1 mm 6 mps 721 mmHg 93%
    05:00 0°C° 0.1 mm 5 mps 721 mmHg 90%
    06:00 0°C° 0.1 mm 5 mps 721 mmHg 88%
    07:00 0°C° 0.1 mm 4 mps 721 mmHg 85%
    08:00 +1°C° 0 mm 5 mps 722 mmHg 82%
    09:00 +1°C° 0 mm 5 mps 722 mmHg 79%
    10:00 +2°C° 0 mm 5 mps 722 mmHg 76%
    11:00 +2°C° 0.1 mm 5 mps 722 mmHg 74%
    12:00 +3°C° 0.1 mm 5 mps 722 mmHg 72%
    13:00 +3°C° 0.1 mm 5 mps 722 mmHg 70%
    14:00 +3°C° 0.1 mm 5 mps 722 mmHg 71%
    15:00 +3°C° 0.1 mm 5 mps 723 mmHg 73%
    16:00 +3°C° 0.1 mm 5 mps 723 mmHg 74%
    17:00 +3°C° 0 mm 4 mps 723 mmHg 76%
    18:00 +1°C° 0 mm 4 mps 723 mmHg 78%
    19:00 +1°C° 0 mm 3 mps 723 mmHg 80%
    20:00 +1°C° 0 mm 3 mps 724 mmHg 81%
    21:00 +1°C° 0 mm 3 mps 724 mmHg 82%
    22:00 +1°C° 0 mm 2 mps 724 mmHg 83%
    23:00 +1°C° 0 mm 2 mps 724 mmHg 83%

    5 March, Thursday

    Time Temperature Precipitation Wind Pressure Humidity
    00:00 +1°C° 0 mm 2 mps 724 mmHg 82%
    01:00 0°C° 0 mm 3 mps 724 mmHg 82%
    02:00 +1°C° 0 mm 2 mps 724 mmHg 81%
    03:00 -1°C° 0 mm 2 mps 724 mmHg 81%
    04:00 -1°C° 0 mm 2 mps 724 mmHg 81%
    05:00 -1°C° 0 mm 2 mps 724 mmHg 81%
    06:00 -1°C° 0 mm 2 mps 724 mmHg 82%
    07:00 -1°C° 0 mm 2 mps 725 mmHg 82%
    08:00 +2°C° 0 mm 2 mps 725 mmHg 76%
    09:00 +3°C° 0 mm 2 mps 725 mmHg 71%
    10:00 +5°C° 0 mm 2 mps 725 mmHg 66%
    11:00 +4°C° 0 mm 3 mps 725 mmHg 63%
    12:00 +5°C° 0 mm 3 mps 725 mmHg 60%
    13:00 +5°C° 0 mm 3 mps 724 mmHg 57%
    14:00 +5°C° 0 mm 3 mps 724 mmHg 59%
    15:00 +5°C° 0 mm 3 mps 724 mmHg 61%
    16:00 +5°C° 0 mm 3 mps 723 mmHg 62%
    17:00 +4°C° 0 mm 3 mps 723 mmHg 69%
    18:00 +3°C° 0 mm 3 mps 723 mmHg 75%
    19:00 +2°C° 0 mm 3 mps 723 mmHg 82%
    20:00 +1°C° 0 mm 3 mps 723 mmHg 82%
    21:00 +1°C° 0 mm 3 mps 723 mmHg 83%
    22:00 +1°C° 0 mm 3 mps 723 mmHg 84%
    23:00 +1°C° 0 mm 3 mps 723 mmHg 84%
    Show more